Powrót do katalogu

STARLINK-3970

AktywnyŁącznośćVLEO
NORAD 52706·PAYLOAD·🇺🇸 United States

Wystrzelony May 18, 2022 z Cape Canaveral Space Force Station

Loading…

Następne Przeloty (najbliższe 24 godziny)

TLE

ŚwieżeSource: CelesTrak SupGP

Epoka: Sep 15, 2026, 02:44 UTC

1 52706C 22053BC  26258.11437500  .00050551  00000+0  14462-2 0  2588
2 52706  53.1595 351.0976 0001189  75.9332 264.0243 15.35374786    10

Śledź STARLINK-3970 w czasie rzeczywistym z AllMySat

Download on the App Store